www.pogodaiklimat.ru

Погода и климат >> Архив погоды >> Казахстан >> Бейнеу


ПОГОДА в Бейнеу

  • Прогноз погоды в Бейнеу
  • Монитор погоды в Бейнеу
  • Климат города

АРХИВ ПОГОДЫ в Бейнеу

Время (UTC), дата Ветер
(напр.,м/с)
 
Видим.   Явления Облачность Т
(С)
Тd
(С)
f
(%)
Тe
(С)
Тes
(С)
Комфортность P
(гПа)
Po
(гПа)
Тmin
(С)
Tmax
(С)
R
(мм)
R24
(мм)
S
(см)
15 16.10 штиль 0 н/о 10/10 1000 м
[Sc]
+10.6 -4.4 35 +11 +11 1030.4 +11.6
18 16.10 З 1 н/о 10/10 1000 м
[Sc]
+10.3 -3.3 38 +11 +11 1030.6 +11.6
21 16.10 Ю 1 н/о 10/10 1000 м
[Sc]
+9.6 -0.2 50 +10 +10 1030.9
00 17.10 З 1 н/о 10/10 1000 м
[Sc]
+10.3 -3.3 38 +11 +11 1030.6 +11.6
03 17.10 Ю 2 20 км 10/10 1000 м
[Sc]
+9.1 -1.9 46 +8 +8 1030.8
06 17.10 ЮЗ 2 20 км 10/10 1000 м
[Sc]
+11.8 -1.2 40 +11 +11 1030.7 +9.0
09 17.10 ЮЗ 2 20 км 6/6 1000 м
[Sc]
+15.4 +0.4 36 +15 +18 1029.8
12 17.10 ЮЗ 2 20 км 6/0
[Ci sp]
+16.3 -0.5 32 +17 +18 1027.7
15 17.10 ЮЗ 2 н/о 3/0
[Ci fib]
+13.7 +1.5 43 +13 +13 1026.5 +17.3
18 17.10 ЮЗ 1 н/о ясно +12.3 +0.6 45 +13 +13 1025.5 +17.3
21 17.10 ЮЗ 2 н/о ясно +9.5 -1.4 46 +8 +8 1024.5
00 18.10 ЮЗ 2 н/о ясно +9.4 +3.4 66 +8 +8 1023.4
03 18.10 ЮЗ 3 20 км 4/4 1000 м
[Sc]
+9.2 +2.1 61 +7 +7 1022.4
06 18.10 З 6 20 км 10/10 1000 м
[Sc]
+12.4 +2.5 51 +10 +10 1022.7 +8.5
09 18.10 З 5 20 км 10/10 600 м
[Sc]
+15.3 +9.3 67 +14 +14 1021.8
12 18.10 З 3 20 км 6/6 600 м
[Sc diur, vesp]
+15.4 +9.4 67 +15 +15 1021.6
15 18.10 З 4 н/о ясно +12.4 +8.4 77 +10 +10 1021.9 +15.8
18 18.10 ЮЗ 2 н/о ясно +9.0 +6.4 84 +7 +7 1022.4 +15.8
21 18.10 штиль 0 н/о ясно +5.0 +3.0 87 +4 +4 1023.1
00 19.10 СВ 1 н/о ясно +3.0 +1.2 88 +1 +1 1024.0
03 19.10 штиль 0 20 км ясно +2.5 +0.4 86 +1 +1 1024.8
06 19.10 штиль 0 20 км ясно +9.4 +3.6 67 +9 +14 1026.4 +2.0
09 19.10 В 2 20 км ясно +16.0 +6.1 52 +16 +22 1025.9
12 19.10 В 2 20 км ясно +17.0 +6.7 51 +17 +19 1025.1
15 19.10 штиль 0 н/о ясно +11.0 +3.6 60 +11 +11 1025.1 +17.2
18 19.10 штиль 0 н/о ясно +7.6 +2.1 68 +7 +7 1025.1 +17.2
21 19.10 штиль 0 н/о ясно +6.6 -1.4 57 +6 +6 1024.6
00 20.10 штиль 0 н/о ясно +4.6 +0.4 74 +4 +4 1023.9
03 20.10 штиль 0 20 км ясно +4.8 +1.8 81 +4 +4 1024.3
06 20.10 ЮВ 4 20 км ясно +11.3 +5.5 67 +9 +12 1024.5 +4.1
09 20.10 Ю 4 20 км ясно +20.5 +1.9 29 +21 +25 комфорт 1022.9
12 20.10 Ю 3 20 км ясно +21.0 +0.4 25 +21 +23 комфорт 1021.8
15 20.10 Ю 1 н/о ясно +16.0 +0.2 34 +17 +17 1021.6 +21.3
18 20.10 Ю 2 н/о ясно +12.2 +0.6 45 +12 +12 1021.0 +21.3
21 20.10 Ю 3 н/о ясно +8.0 +0.4 59 +6 +6 1020.7
00 21.10 Ю 3 н/о ясно +4.7 -0.4 69 +1 +1 1020.4
03 21.10 ЮВ 3 20 км ясно +3.9 -1.3 69 0 0 1020.2
06 21.10 ЮВ 3 20 км ясно +10.9 +0.6 49 +9 +12 1020.8 +3.8
09 21.10 ЮВ 2 20 км ясно +19.2 +3.6 36 +20 +26 1020.0
12 21.10 ЮВ 2 20 км ясно +20.9 +0.2 25 +22 +23 комфорт 1019.3
15 21.10 ЮВ 1 н/о ясно +15.0 -2.5 30 +16 +16 1019.6 +21.5
18 21.10 ЮВ 1 н/о ясно +9.1 -1.7 47 +9 +9 1020.1 +21.5
21 21.10 ЮВ 1 н/о ясно +6.3 -1.8 56 +6 +6 1027.0
00 22.10 ЮВ 1 н/о ясно +5.3 -2.2 58 +5 +5 1020.5
03 22.10 ЮВ 1 20 км ясно +4.4 -1.7 65 +3 +3 1021.0
06 22.10 ЮВ 3 20 км ясно +13.0 -0.9 38 +12 +15 1022.2 +4.1
09 22.10 СВ 4 20 км ясно +19.9 -0.7 25 +20 +24 1021.6
12 22.10 В 2 20 км ясно +20.9 -1.9 22 +21 +23 комфорт 1020.5
15 22.10 В 2 н/о ясно +13.1 -1.9 35 +13 +13 1021.2 +21.2
18 22.10 ЮВ 3 н/о 3/0
[Ci fib]
+10.6 -2.2 41 +9 +9 1021.8 +21.2
21 22.10 ЮВ 2 н/о 3/0
[Ci sp]
+8.2 -1.4 51 +7 +7 1021.9
00 23.10 В 2 н/о 3/0
[Ci sp]
+5.9 -1.4 59 +4 +4 1022.0
03 23.10 В 4 20 км 4/0
[Ac lent Ci sp]
+6.8 -0.5 60 +4 +4 1021.1
06 23.10 В 5 20 км 8/0
[Cs]
+11.6 +3.2 56 +9 +11 1022.0 +5.4
09 23.10 В 6 20 км 10/0
[Ac und]
+17.0 +2.1 37 +16 +17 1020.4
12 23.10 В 8 20 км 10/0
[Ac und]
+17.5 +2.1 36 +16 +17 1018.6

 

Местоположение метеостанции Бейнеу (Мангистауская область, Казахстан): широта 45.32 долгота 55.20 высота над уровнем моря 74 м.

В архиве по умолчанию представлена погода в Бейнеу за последнюю неделю. Архивные данные за месяц целиком и за предыдущие месяцы, начиная с января 2011 года, Вы можете получить, выбрав интересующий диапазон дат из раскрывающегося списка и нажав кнопку "Ввод!".


*Определитесь, кто Вы:
робот инопланетянин человек

Внимание! Время в таблицах - всемирное. Для получения местного времени необходимо прибавить поправку, которая в Бейнеу равна 4 ч.

Смотрите также архив погоды в соседних городах и на ближайших метеорологических станциях:

Погода в Саме (Мангистауская область, Казахстан) (72 км)
Погода в Опорной (Мангистауская область, Казахстан) (102 км)
Погода в Каракалпакии (Каракалпакстан, Узбекистан) (103 км)
Погода в Сай-Утесе (Мангистауская область, Казахстан) (172 км)
Погода в Кульсары (Атырауская область, Казахстан) (192 км)
Погода в Жаслыке (Каракалпакстан, Узбекистан) (244 км)
Погода в Кызане (Мангистауская область, Казахстан) (262 км)
Погода в Аккудуке (Мангистауская область, Казахстан) (275 км)
Погода в Тущыбеке (Мангистауская область, Казахстан) (288 км)
Погода в Жанаозене (Мангистауская область, Казахстан) (295 км)

Пояснения к столбцам:

Ветер - указаны скорость ветра в м/с - средняя за 10 мин, порывы в срок и между сроками (в фигурных скобках) и направление, откуда дует ветер: С - северный, СВ - северо-восточный, В - восточный, ЮВ - юго-восточный, Ю - южный, ЮЗ - юго-западный, З - западный, СЗ - северо-западный.
Видимость - горизонтальная дальность видимости в метрах или километрах. При видимости от 1 до 10 км при отсутствии осадков обычно наблюдается дымка, при ухудшении видимости до 1 км и менее - туман. В сухую погоду видимость может ухудшаться дымом, пылью или мглою.
Явления - указаны атмосферные явления, наблюдавшиеся в срок или в последний час перед сроком; фигурными скобками обозначены явления, наблюдавшиеся между сроками (за 1-3 часа до срока); квадратными скобками обозначены град или гололедные отложения с указанием их диаметра в мм.
Облачность - указаны через наклонную черту общая и нижняя облачность в баллах и высота нижней границы облаков в метрах; квадратными скобками обозначены формы облаков: Ci - перистые, Cs - перисто-слоистые, Cc - перисто-кучевые, Ac - высококучевые, As - высокослоистые, Sc - слоисто-кучевые, Ns - слоисто-дождевые, Cu - кучевые, Cb - кучево-дождевые. Подробнее классификацию облаков см. в Атласе облаков (PDF).
T - Температура воздуха - температура, измеренная на высоте 2 м над землей.
Td - Температура точки росы - температура, при понижении до которой содержащийся в воздухе водяной пар достигнет насыщения.
f - Относительная влажность воздуха - влажноcть воздуха, измеренная на высоте 2 м над землей.
Te - Эффективная температура - температура, которую ощущает одетый по сезону человек в тени. Характеристика душности погоды. При расчете учитывается влияние влажности воздуха и скорости ветра на теплоощущения человека.
Tes - Эффективная температура на солнце - температура, которую ощущает человек, с поправкой на солнечный нагрев. Характеристика знойности погоды. Зависит от высоты солнца над горизонтом, облачности и скорости ветра. Ночью, в пасмурную погоду, а также при ветре 12 м/с и более поправка равна нулю.
P - Атмосферное давление - приведенное к уровню моря атмосферное давление.
Po - Атмосферное давление - измеренное на уровне метеостанции атмосферное давление.
Tmin - Минимальная температура - минимум температуры воздуха на высоте 2 м над землей.
Tmax - Максимальная температура - максимум температуры воздуха на высоте 2 м над землей.
R - Количество осадков - Количество выпавших осадков за период времени, мм. При наведении курсора мыши на число - период времени, за который выпало указанное количество осадков.
R24 - Количество осадков - Количество выпавших осадков за 24 часа, мм.
S - Снежный покров - Высота снежного покрова, см. При наведении курсора мыши на число - состояние снежного покрова и степень покрытия местности в баллах.